Flag for U.S.A. Weather past 2 weeks in Youngstown, Ohio, U.S.A.

Now
47 °F

Broken clouds.


Feels Like: 46 °F
Forecast: 33 / 55 °F
Wind: 3 mph from North

Location: Youngstown-Warren Regional Airport

Current Time: Apr 25, 2015 at 12:48:49 PM

Latest Report: Apr 25, 2015 at 11:51 AM


Visibility: 10 mi

Pressure: 29.91 "Hg

Humidity: 37%

Dew point: 22 °F

Location of YoungstownLocation

Historic Weather in Youngstown — Graph

°F

Youngstown temperature yesterday

Maximum temperature yesterday: 50 °F (at 2:51 PM)
Minimum temperature yesterday: 28 °F (at 5:51 AM)
Average temperature yesterday: 39 °F

Past Weeks' High & Low Weather Summary

 TemperatureHumidityPressure
High79 °F (Apr 13, 3:51 PM)97% (Apr 17, 3:51 AM)30.34 "Hg (Apr 17, 3:51 AM)
Low28 °F (Apr 24, 5:51 AM)19% (Apr 15, 12:51 PM)29.41 "Hg (Apr 20, 1:51 PM)
Average51 °F58%30.00 "Hg
* Reported Apr 10 11:51 AM — Apr 25 11:51 AM, Youngstown, Weather by CustomWeather, © 2015

Note: Actual official high and low records may vary slightly from our data, if they occured in-between our weather recording intervals... More about our weather records

Advertising

Youngstown weather history for previous 24 hours

 ConditionsComfort  
Time TempWeatherWind HumidityBarometerVisibility
11:51 AM
Sat, Apr 25
47 °FBroken clouds.3 mph37%29.91 "Hg10 mi
10:51 AM44 °FBroken clouds.6 mph43%29.93 "Hg10 mi
9:51 AM40 °FPartly sunny.No wind63%29.94 "Hg10 mi
8:51 AM39 °FMostly cloudy.No wind62%29.95 "Hg10 mi
7:51 AM38 °FMostly cloudy.No wind65%29.96 "Hg10 mi
6:51 AM37 °FMostly cloudy.No wind62%29.97 "Hg10 mi
5:51 AM36 °FOvercast.No wind62%29.99 "Hg10 mi
4:51 AM36 °FOvercast.5 mph59%29.98 "Hg10 mi
3:51 AM36 °FOvercast.No wind59%29.99 "Hg10 mi
2:51 AM34 °FOvercast.5 mph73%29.98 "Hg10 mi
1:51 AM32 °FPassing clouds.5 mph69%30.01 "Hg10 mi
12:51 AM33 °FPassing clouds.6 mph63%30.01 "Hg10 mi
11:51 PM
Fri, Apr 24
36 °FPassing clouds.5 mph52%30.02 "Hg10 mi
10:51 PM37 °FPassing clouds.7 mph50%30.02 "Hg10 mi
9:51 PM39 °FPassing clouds.6 mph45%30.03 "Hg10 mi
8:51 PM40 °FPartly sunny.7 mph45%30.03 "Hg10 mi
7:51 PM44 °FScattered clouds.9 mph38%30.03 "Hg10 mi
6:51 PM48 °FPassing clouds.14 mph32%30.03 "Hg10 mi
5:51 PM49 °FPassing clouds.12 mph33%30.04 "Hg10 mi
4:51 PM49 °FPassing clouds.17 mph31%30.04 "Hg10 mi
3:51 PM50 °FSunny.20 mph32%30.03 "Hg10 mi
2:51 PM50 °FPassing clouds.17 mph33%30.04 "Hg10 mi
1:51 PM48 °FScattered clouds.24 mph39%30.05 "Hg10 mi
12:51 PM46 °FPartly sunny.16 mph46%30.07 "Hg10 mi
Weather by CustomWeather, © 2015

See weather overviewHow to use our weather pages